Weather History for Courtland, AL

Change the Weather History Date:

Saturday, February 16, 2013

  Actual Average (KMSL) Record (KMSL)
Temperature  
Mean Temperature 34 °F 45 °F  
Max Temperature 41 °F 56 °F 80 °F (1927)
Min Temperature 26 °F 35 °F 6 °F (1958)
Degree Days  
Heating Degree Days 32 20  
Month to date heating degree days 341  
Since 1 July heating degree days 2321  
Cooling Degree Days 0 0  
Month to date cooling degree days 0  
Year to date cooling degree days 0  
Moisture  
Dew Point 18 °F    
Average Humidity 54    
Maximum Humidity 80    
Minimum Humidity 33    
Precipitation  
Precipitation 0.00 in 0.17 in 2.24 in (2001)
Month to date precipitation 2.63  
Year to date precipitation 7.24  
Snow  
Snow 0.00 in - - ()
Month to date snowfall  
Since 1 July snowfall  
Snow Depth -    
Sea Level Pressure  
Sea Level Pressure 30.18 in    
Wind  
Wind Speed 9 mph (NNW)    
Max Wind Speed 23 mph    
Max Gust Speed 28 mph    
Visibility 10 miles    
Events      
T = Trace of Precipitation, MM = Missing Value Source: NWS Daily Summary

Daily Weather History Graph

Daily Weather History Graph

Search for Another Location

Airport:

Trip Planner

Search our weather history database for the weather conditions in past years. The results will help you decide how hot, cold, wet, or windy it might be!

Date:

Astronomy

Feb. 16, 2013 Rise Set
Actual Time 6:33 AM CST 5:33 PM CST
Civil Twilight 6:07 AM CST 5:59 PM CST
Nautical Twilight 5:38 AM CST 6:29 PM CST
Astronomical Twilight 5:09 AM CST 6:58 PM CST
Moon 10:04 AM CST (2/16) No Moon Set
Length of Visible Light 11h 51m
Length of Day
11h 00m
Waxing Crescent, 39% of the Moon is Illuminated
Feb 16
Waxing Crescent
Feb 17
First Quarter
Feb 25
Full
Mar 4
Last Quarter
Mar 11
New

Hourly Weather History & Observations

Time (CST) Temp. Windchill Dew Point Humidity Pressure Visibility Wind Dir Wind Speed Gust Speed Precip Events Conditions
12:15 AM 37.4 °F 30.8 °F 26.6 °F 65% 30.15 in 10.0 mi NNE 9.2 mph - N/A   Overcast
12:35 AM 37.4 °F 32.1 °F 24.8 °F 60% 30.14 in 10.0 mi North 6.9 mph - N/A   Mostly Cloudy
12:55 AM 37.4 °F 30.8 °F 23.0 °F 56% 30.15 in 10.0 mi North 9.2 mph - N/A   Overcast
1:15 AM 37.4 °F 31.4 °F 23.0 °F 56% 30.14 in 10.0 mi North 8.1 mph - N/A   Overcast
1:35 AM 35.6 °F 29.2 °F 23.0 °F 60% 30.14 in 10.0 mi NNE 8.1 mph - N/A   Mostly Cloudy
1:55 AM 35.6 °F 28.0 °F 23.0 °F 60% 30.14 in 10.0 mi North 10.4 mph - N/A   Overcast
2:15 AM 35.6 °F 28.6 °F 23.0 °F 60% 30.14 in 10.0 mi North 9.2 mph - N/A   Overcast
2:35 AM 35.6 °F 29.9 °F 23.0 °F 60% 30.14 in 10.0 mi North 6.9 mph - N/A   Scattered Clouds
2:55 AM 33.8 °F 27.0 °F 23.0 °F 65% 30.14 in 10.0 mi North 8.1 mph - N/A   Scattered Clouds
3:15 AM 33.8 °F 26.4 °F 23.0 °F 65% 30.14 in 10.0 mi North 9.2 mph - N/A   Mostly Cloudy
3:35 AM 33.8 °F 26.4 °F 21.2 °F 60% 30.14 in 10.0 mi North 9.2 mph - N/A   Mostly Cloudy
3:55 AM 33.8 °F 27.0 °F 23.0 °F 65% 30.15 in 10.0 mi North 8.1 mph - N/A   Overcast
4:15 AM 32.0 °F 24.2 °F 23.0 °F 69% 30.15 in 10.0 mi North 9.2 mph - N/A   Mostly Cloudy
4:35 AM 32.0 °F 24.8 °F 23.0 °F 69% 30.15 in 10.0 mi North 8.1 mph - N/A   Scattered Clouds
4:55 AM 32.0 °F 25.6 °F 23.0 °F 69% 30.15 in 10.0 mi North 6.9 mph - N/A   Clear
5:15 AM 32.0 °F 24.8 °F 21.2 °F 64% 30.16 in 10.0 mi North 8.1 mph - N/A   Clear
5:35 AM 30.2 °F 25.4 °F 21.2 °F 69% 30.16 in 10.0 mi NNW 4.6 mph - N/A   Clear
5:55 AM 28.4 °F 22.2 °F 21.2 °F 74% 30.16 in 10.0 mi NNW 5.8 mph - N/A   Clear
6:15 AM 28.4 °F 24.6 °F 21.2 °F 74% 30.16 in 10.0 mi NNW 3.5 mph - N/A   Clear
6:35 AM 26.6 °F 21.2 °F 21.2 °F 80% 30.16 in 10.0 mi NW 4.6 mph - N/A   Scattered Clouds
7:15 AM 30.2 °F 24.3 °F 23.0 °F 75% 30.17 in 10.0 mi NNW 5.8 mph - N/A   Scattered Clouds
7:35 AM 32.0 °F 26.4 °F 23.0 °F 69% 30.17 in 10.0 mi NNW 5.8 mph - N/A   Clear
7:55 AM 32.0 °F 27.5 °F 23.0 °F 69% 30.18 in 10.0 mi NNW 4.6 mph - N/A   Clear
8:15 AM 32.0 °F 25.6 °F 21.2 °F 64% 30.18 in 10.0 mi NNW 6.9 mph - N/A   Clear
8:35 AM 33.8 °F 27.0 °F 21.2 °F 60% 30.18 in 10.0 mi North 8.1 mph - N/A   Clear
8:55 AM 33.8 °F 26.4 °F 19.4 °F 56% 30.19 in 10.0 mi NNW 9.2 mph - N/A   Clear
9:15 AM 33.8 °F 26.4 °F 19.4 °F 56% 30.19 in 10.0 mi NNW 9.2 mph - N/A   Clear
9:35 AM 35.6 °F 27.1 °F 19.4 °F 52% 30.19 in 10.0 mi North 12.7 mph 19.6 mph N/A   Clear
11:15 AM 37.4 °F 28.9 °F 15.8 °F 41% 30.19 in 10.0 mi NW 13.8 mph - N/A   Scattered Clouds
12:15 PM 41.0 °F 33.9 °F 14.0 °F 33% 30.17 in 10.0 mi WNW 12.7 mph 19.6 mph N/A   Mostly Cloudy
12:35 PM 41.0 °F 33.1 °F 15.8 °F 36% 30.16 in 10.0 mi NW 15.0 mph 20.7 mph N/A   Overcast
12:55 PM 41.0 °F 34.3 °F 15.8 °F 36% 30.15 in 10.0 mi NW 11.5 mph - N/A   Overcast
1:15 PM 39.2 °F 30.8 °F 14.0 °F 36% 30.15 in 10.0 mi NNW 15.0 mph 21.9 mph N/A   Mostly Cloudy
1:35 PM 41.0 °F 33.9 °F 14.0 °F 33% 30.15 in 10.0 mi WNW 12.7 mph 17.3 mph N/A   Mostly Cloudy
1:55 PM 39.2 °F 31.6 °F 14.0 °F 36% 30.15 in 10.0 mi WNW 12.7 mph 18.4 mph N/A   Scattered Clouds
2:15 PM 39.2 °F 30.8 °F 14.0 °F 36% 30.15 in 10.0 mi NW 15.0 mph 26.5 mph N/A   Mostly Cloudy
2:35 PM 39.2 °F 33.6 °F 15.8 °F 39% 30.15 in 10.0 mi West 8.1 mph 20.7 mph N/A   Overcast
3:15 PM 39.2 °F 30.8 °F 14.0 °F 36% 30.15 in 10.0 mi WNW 15.0 mph 19.6 mph N/A   Mostly Cloudy
3:35 PM 41.0 °F 31.9 °F 14.0 °F 33% 30.15 in 10.0 mi NNW 19.6 mph 26.5 mph N/A   Mostly Cloudy
3:55 PM 37.4 °F 28.9 °F 14.0 °F 38% 30.16 in 10.0 mi NW 13.8 mph - N/A   Mostly Cloudy
4:15 PM 37.4 °F 30.8 °F 14.0 °F 38% 30.16 in 10.0 mi NW 9.2 mph 18.4 mph N/A   Scattered Clouds
4:35 PM 37.4 °F 28.2 °F 14.0 °F 38% 30.16 in 10.0 mi NNW 16.1 mph - N/A   Scattered Clouds
4:55 PM 37.4 °F 26.4 °F 14.0 °F 38% 30.16 in 10.0 mi NNW 23.0 mph 27.6 mph N/A   Mostly Cloudy
5:15 PM 35.6 °F 29.2 °F 15.8 °F 44% 30.17 in 10.0 mi NW 8.1 mph - N/A   Scattered Clouds
5:35 PM 35.6 °F 29.9 °F 15.8 °F 44% 30.18 in 10.0 mi WNW 6.9 mph - N/A   Mostly Cloudy
6:15 PM 33.8 °F 25.8 °F 14.0 °F 44% 30.19 in 10.0 mi NNW 10.4 mph - N/A   Clear
6:35 PM 33.8 °F 26.4 °F 14.0 °F 44% 30.20 in 10.0 mi NW 9.2 mph - N/A   Clear
6:55 PM 33.8 °F 27.0 °F 14.0 °F 44% 30.21 in 10.0 mi NW 8.1 mph - N/A   Clear
7:15 PM 32.0 °F 24.2 °F 14.0 °F 48% 30.22 in 10.0 mi NNW 9.2 mph - N/A   Clear
7:35 PM 32.0 °F 24.8 °F 14.0 °F 48% 30.22 in 10.0 mi NW 8.1 mph - N/A   Clear
7:55 PM 32.0 °F 24.2 °F 14.0 °F 48% 30.23 in 10.0 mi NW 9.2 mph - N/A   Clear
8:15 PM 32.0 °F 24.8 °F 14.0 °F 48% 30.24 in 10.0 mi NW 8.1 mph - N/A   Clear
8:35 PM 30.2 °F 22.6 °F 15.8 °F 55% 30.24 in 10.0 mi NW 8.1 mph - N/A   Clear
8:55 PM 30.2 °F 22.6 °F 14.0 °F 51% 30.25 in 10.0 mi NNW 8.1 mph - N/A   Clear
9:15 PM 30.2 °F 23.4 °F 15.8 °F 55% 30.25 in 10.0 mi NW 6.9 mph - N/A   Clear
9:55 PM 28.4 °F 23.3 °F 15.8 °F 59% 30.25 in 10.0 mi West 4.6 mph - N/A   Clear
10:15 PM 26.6 °F 21.2 °F 15.8 °F 64% 30.26 in 10.0 mi WNW 4.6 mph - N/A   Clear
10:35 PM 28.4 °F 23.3 °F 15.8 °F 59% 30.25 in 10.0 mi West 4.6 mph - N/A   Clear
10:55 PM 28.4 °F 23.3 °F 15.8 °F 59% 30.25 in 10.0 mi WNW 4.6 mph - N/A   Clear
11:15 PM 26.6 °F 22.6 °F 15.8 °F 64% 30.25 in 10.0 mi WNW 3.5 mph - N/A   Clear
11:35 PM 26.6 °F 21.2 °F 15.8 °F 64% 30.26 in 10.0 mi WNW 4.6 mph - N/A   Clear
11:55 PM 26.6 °F 20.0 °F 15.8 °F 64% 30.26 in 10.0 mi West 5.8 mph - N/A   Clear